TimeCST,TemperatureF,Dew PointF,Humidity,Sea Level PressureIn,VisibilityMPH,Wind Direction,Wind SpeedMPH,Gust SpeedMPH,PrecipitationIn,Events,Conditions,WindDirDegrees,DateUTC
12:15 AM,32.0,19.4,60,30.11,10.0,Calm,Calm,-,N/A,,Clear,0,2012-12-04 06:15:00
12:35 AM,33.8,19.4,56,30.12,10.0,West,5.8,-,N/A,,Clear,270,2012-12-04 06:35:00
12:55 AM,30.2,17.6,60,30.12,10.0,Calm,Calm,-,N/A,,Clear,0,2012-12-04 06:55:00
1:15 AM,28.4,15.8,59,30.11,10.0,West,4.6,-,N/A,,Clear,270,2012-12-04 07:15:00
1:35 AM,24.8,14.0,64,30.12,10.0,Calm,Calm,-,N/A,,Clear,0,2012-12-04 07:35:00
1:55 AM,23.0,14.0,68,30.13,10.0,Calm,Calm,-,N/A,,Clear,0,2012-12-04 07:55:00
2:15 AM,24.8,14.0,64,30.13,10.0,West,3.5,-,N/A,,Clear,280,2012-12-04 08:15:00
2:55 AM,23.0,14.0,68,30.14,10.0,West,3.5,-,N/A,,Clear,260,2012-12-04 08:55:00
3:15 AM,23.0,15.8,74,30.15,10.0,Calm,Calm,-,N/A,,Clear,0,2012-12-04 09:15:00
3:35 AM,23.0,15.8,74,30.15,10.0,Calm,Calm,-,N/A,,Clear,0,2012-12-04 09:35:00
3:55 AM,24.8,15.8,69,30.15,10.0,WSW,4.6,-,N/A,,Clear,240,2012-12-04 09:55:00
4:15 AM,23.0,15.8,74,30.15,10.0,Calm,Calm,-,N/A,,Clear,0,2012-12-04 10:15:00
4:35 AM,21.2,15.8,80,30.15,10.0,West,3.5,-,N/A,,Clear,280,2012-12-04 10:35:00
4:55 AM,21.2,15.8,80,30.15,10.0,West,3.5,-,N/A,,Clear,270,2012-12-04 10:55:00
5:15 AM,21.2,15.8,80,30.16,10.0,Calm,Calm,-,N/A,,Clear,0,2012-12-04 11:15:00
5:35 AM,21.2,14.0,74,30.17,10.0,West,4.6,-,N/A,,Clear,280,2012-12-04 11:35:00
5:55 AM,21.2,14.0,74,30.18,10.0,NW,5.8,-,N/A,,Clear,310,2012-12-04 11:55:00
6:15 AM,21.2,15.8,80,30.18,10.0,Calm,Calm,-,N/A,,Clear,0,2012-12-04 12:15:00
6:35 AM,24.8,17.6,74,30.19,10.0,West,4.6,-,N/A,,Clear,280,2012-12-04 12:35:00
6:55 AM,23.0,15.8,74,30.20,10.0,Calm,Calm,-,N/A,,Clear,0,2012-12-04 12:55:00
7:15 AM,19.4,12.2,74,30.21,10.0,NW,4.6,-,N/A,,Clear,320,2012-12-04 13:15:00
7:35 AM,21.2,14.0,74,30.21,10.0,WNW,3.5,-,N/A,,Clear,300,2012-12-04 13:35:00
7:55 AM,23.0,15.8,74,30.22,10.0,WNW,3.5,-,N/A,,Clear,300,2012-12-04 13:55:00
8:15 AM,23.0,15.8,74,30.23,10.0,NW,4.6,-,N/A,,Clear,310,2012-12-04 14:15:00
8:35 AM,26.6,19.4,74,30.24,10.0,WNW,3.5,-,N/A,,Clear,290,2012-12-04 14:35:00
8:55 AM,30.2,21.2,69,30.25,10.0,Calm,Calm,-,N/A,,Clear,0,2012-12-04 14:55:00
9:15 AM,33.8,23.0,65,30.25,10.0,WSW,3.5,-,N/A,,Clear,250,2012-12-04 15:15:00
9:35 AM,35.6,21.2,56,30.26,10.0,West,3.5,-,N/A,,Clear,260,2012-12-04 15:35:00
9:55 AM,37.4,21.2,52,30.26,10.0,West,5.8,-,N/A,,Clear,280,2012-12-04 15:55:00
10:15 AM,39.2,23.0,52,30.27,10.0,West,4.6,-,N/A,,Clear,280,2012-12-04 16:15:00
10:35 AM,42.8,23.0,46,30.27,10.0,West,5.8,-,N/A,,Clear,280,2012-12-04 16:35:00
10:55 AM,42.8,24.8,49,30.27,10.0,WNW,5.8,-,N/A,,Clear,290,2012-12-04 16:55:00
11:15 AM,46.4,26.6,46,30.27,10.0,WNW,5.8,-,N/A,,Clear,290,2012-12-04 17:15:00
11:35 AM,50.0,28.4,43,30.26,10.0,West,4.6,-,N/A,,Clear,270,2012-12-04 17:35:00
12:15 PM,57.2,28.4,33,30.25,10.0,WSW,3.5,-,N/A,,Clear,240,2012-12-04 18:15:00
12:35 PM,59.0,24.8,27,30.24,10.0,West,5.8,-,N/A,,Clear,280,2012-12-04 18:35:00
12:55 PM,59.0,24.8,27,30.24,10.0,NNW,5.8,-,N/A,,Clear,340,2012-12-04 18:55:00
1:15 PM,60.8,24.8,25,30.24,10.0,WNW,9.2,-,N/A,,Clear,290,2012-12-04 19:15:00
1:35 PM,60.8,23.0,23,30.23,10.0,WNW,11.5,-,N/A,,Clear,300,2012-12-04 19:35:00
1:55 PM,60.8,21.2,22,30.23,10.0,WNW,11.5,-,N/A,,Clear,290,2012-12-04 19:55:00
2:15 PM,60.8,21.2,22,30.22,10.0,WNW,9.2,-,N/A,,Clear,300,2012-12-04 20:15:00
2:35 PM,60.8,21.2,22,30.22,10.0,NNW,9.2,-,N/A,,Clear,330,2012-12-04 20:35:00
2:55 PM,60.8,21.2,22,30.22,10.0,NNW,8.1,-,N/A,,Clear,340,2012-12-04 20:55:00
3:15 PM,59.0,21.2,23,30.22,10.0,North,6.9,-,N/A,,Clear,350,2012-12-04 21:15:00
3:35 PM,59.0,21.2,23,30.23,10.0,North,5.8,-,N/A,,Clear,350,2012-12-04 21:35:00
3:55 PM,57.2,21.2,25,30.23,10.0,NNE,4.6,-,N/A,,Clear,30,2012-12-04 21:55:00
4:15 PM,57.2,21.2,25,30.24,10.0,NNE,4.6,-,N/A,,Clear,20,2012-12-04 22:15:00
4:35 PM,53.6,21.2,28,30.24,10.0,Calm,Calm,-,N/A,,Clear,0,2012-12-04 22:35:00
4:55 PM,50.0,19.4,30,30.24,10.0,NE,3.5,-,N/A,,Clear,50,2012-12-04 22:55:00
5:15 PM,46.4,19.4,34,30.24,10.0,Calm,Calm,-,N/A,,Clear,0,2012-12-04 23:15:00
5:35 PM,42.8,17.6,36,30.24,10.0,Calm,Calm,-,N/A,,Clear,0,2012-12-04 23:35:00
5:55 PM,39.2,15.8,39,30.24,7.0,Calm,Calm,-,N/A,,Clear,0,2012-12-04 23:55:00
6:15 PM,37.4,17.6,45,30.24,9.0,Calm,Calm,-,N/A,,Clear,0,2012-12-05 00:15:00
6:35 PM,37.4,19.4,48,30.24,9.0,East,3.5,-,N/A,,Clear,90,2012-12-05 00:35:00
6:55 PM,41.0,21.2,45,30.25,10.0,East,3.5,-,N/A,,Clear,80,2012-12-05 00:55:00
7:15 PM,41.0,19.4,42,30.25,10.0,ESE,3.5,-,N/A,,Clear,110,2012-12-05 01:15:00
7:35 PM,35.6,17.6,48,30.25,10.0,East,3.5,-,N/A,,Clear,100,2012-12-05 01:35:00
7:55 PM,33.8,17.6,52,30.25,9.0,East,3.5,-,N/A,,Clear,100,2012-12-05 01:55:00
8:15 PM,35.6,19.4,52,30.25,10.0,ENE,3.5,-,N/A,,Clear,60,2012-12-05 02:15:00
8:35 PM,37.4,21.2,52,30.25,10.0,Calm,Calm,-,N/A,,Clear,0,2012-12-05 02:35:00
8:55 PM,37.4,19.4,48,30.25,10.0,Calm,Calm,-,N/A,,Clear,0,2012-12-05 02:55:00
9:15 PM,35.6,19.4,52,30.25,10.0,Calm,Calm,-,N/A,,Clear,0,2012-12-05 03:15:00
9:35 PM,35.6,21.2,56,30.26,10.0,Calm,Calm,-,N/A,,Clear,0,2012-12-05 03:35:00
9:55 PM,30.2,17.6,60,30.26,10.0,Calm,Calm,-,N/A,,Clear,0,2012-12-05 03:55:00
10:15 PM,30.2,17.6,60,30.26,10.0,NE,3.5,-,N/A,,Clear,50,2012-12-05 04:15:00
10:35 PM,33.8,19.4,56,30.27,10.0,Calm,Calm,-,N/A,,Clear,0,2012-12-05 04:35:00
10:55 PM,30.2,19.4,64,30.26,10.0,East,3.5,-,N/A,,Clear,100,2012-12-05 04:55:00
11:15 PM,30.2,19.4,64,30.26,10.0,Calm,Calm,-,N/A,,Clear,0,2012-12-05 05:15:00
11:35 PM,30.2,17.6,60,30.26,10.0,ENE,6.9,-,N/A,,Clear,70,2012-12-05 05:35:00
11:55 PM,30.2,19.4,64,30.25,10.0,ESE,4.6,-,N/A,,Clear,120,2012-12-05 05:55:00